Location: Bishopstone
(51.0167°N, 1.9000°W)
Time: 23:48:04
(UTC+00:00)

SO-50 - Visible Passes

Search period start: 23 January 2020 00:00
Search period end: 02 February 2020 00:00
Orbit: 597 x 689 km, 64.6° (Epoch: 23 January)

Date Brightness Start Highest point End Pass type
(mag) Time Alt. Az. Time Alt. Az. Time Alt. Az.
23 Jan ? 04:51:08 16° N 04:51:08 16° N 04:53:32 10° NE visible
23 Jan ? 06:28:45 10° NNW 06:32:37 24° NNE 06:36:27 10° E visible
24 Jan ? 05:15:28 17° N 05:16:21 17° N 05:19:29 10° NE visible
24 Jan ? 06:53:42 10° NNW 06:58:07 36° NE 07:02:22 10° ESE visible
25 Jan ? 04:02:11 12° NNE 04:02:11 12° NNE 04:02:54 10° NE visible
25 Jan ? 05:39:49 16° NNW 05:42:02 21° NNE 05:45:38 10° ENE visible
26 Jan ? 04:26:33 16° NNE 04:26:33 16° NNE 04:28:42 10° NE visible
26 Jan ? 06:04:10 14° NNW 06:07:35 30° NNE 06:11:40 10° E visible
27 Jan ? 04:50:56 19° N 04:51:25 19° NNE 04:54:47 10° ENE visible
27 Jan ? 06:28:34 11° NW 06:32:58 48° NE 06:37:24 10° ESE visible
28 Jan ? 03:37:43 11° NE 03:37:43 11° NE 03:37:58 10° NE visible
28 Jan ? 05:15:20 21° N 05:17:02 25° NNE 05:20:54 10° E visible
28 Jan ? 06:53:23 10° NW 06:58:08 87° NE 07:02:42 10° SE visible
29 Jan ? 04:02:10 16° NNE 04:02:10 16° NNE 04:03:57 10° NE visible
29 Jan ? 05:39:47 20° NNW 05:42:30 38° NE 05:46:47 10° ESE visible
30 Jan ? 04:26:38 22° NNE 04:26:38 22° NNE 04:30:05 10° ENE visible
30 Jan ? 06:04:16 18° NW 06:07:45 66° NE 06:12:18 10° SE visible
31 Jan ? 04:51:10 29° N 04:51:59 31° NNE 04:56:06 10° E visible
31 Jan ? 06:28:48 14° NW 06:32:48 65° SW 06:37:18 10° SSE visible
01 Feb ? 03:38:07 14° NE 03:38:07 14° NE 03:39:15 10° ENE visible
01 Feb ? 05:15:46 35° NNW 05:17:20 51° NE 05:21:48 10° ESE visible
01 Feb ? 06:53:30 10° WNW 06:57:37 31° WSW 07:01:37 10° S visible
